TimeHST,TemperatureF,Dew PointF,Humidity,Sea Level PressureIn,VisibilityMPH,Wind Direction,Wind SpeedMPH,Gust SpeedMPH,PrecipitationIn,Events,Conditions,WindDirDegrees,DateUTC
12:54 AM,72.0,66.9,84,30.08,10.0,NE,11.5,17.3,N/A,,Clear,50,2013-06-09 10:54:00
1:54 AM,72.0,66.9,84,30.05,10.0,ENE,10.4,18.4,N/A,,Clear,70,2013-06-09 11:54:00
2:54 AM,72.0,68.0,87,30.04,10.0,NE,8.1,-,N/A,,Clear,50,2013-06-09 12:54:00
3:54 AM,72.0,66.9,84,30.04,10.0,ENE,9.2,-,N/A,,Mostly Cloudy,70,2013-06-09 13:54:00
4:54 AM,72.0,66.9,84,30.05,10.0,NE,12.7,19.6,N/A,,Scattered Clouds,40,2013-06-09 14:54:00
5:54 AM,72.0,69.1,91,30.08,10.0,NNE,10.4,16.1,N/A,,Mostly Cloudy,30,2013-06-09 15:54:00
6:54 AM,73.0,66.9,81,30.10,10.0,NE,11.5,18.4,N/A,,Mostly Cloudy,40,2013-06-09 16:54:00
7:54 AM,75.0,66.9,76,30.10,10.0,NNE,13.8,19.6,N/A,,Partly Cloudy,30,2013-06-09 17:54:00
8:54 AM,77.0,68.0,74,30.11,10.0,NE,16.1,28.8,N/A,,Scattered Clouds,40,2013-06-09 18:54:00
9:54 AM,79.0,69.1,72,30.10,10.0,NE,18.4,26.5,N/A,,Partly Cloudy,50,2013-06-09 19:54:00
10:54 AM,79.0,66.9,66,30.10,10.0,NE,16.1,28.8,N/A,,Clear,50,2013-06-09 20:54:00
11:54 AM,80.1,68.0,67,30.09,10.0,NE,18.4,27.6,N/A,,Partly Cloudy,40,2013-06-09 21:54:00
12:54 PM,82.9,68.0,60,30.08,10.0,NE,17.3,29.9,N/A,,Partly Cloudy,40,2013-06-09 22:54:00
1:54 PM,82.0,66.9,60,30.06,10.0,NE,17.3,28.8,N/A,,Partly Cloudy,40,2013-06-09 23:54:00
2:54 PM,82.0,68.0,62,30.06,10.0,NE,17.3,25.3,N/A,,Partly Cloudy,50,2013-06-10 00:54:00
3:54 PM,80.1,68.0,67,30.05,10.0,NE,17.3,29.9,N/A,,Partly Cloudy,50,2013-06-10 01:54:00
4:54 PM,77.0,66.9,71,30.05,10.0,NE,16.1,28.8,N/A,,Partly Cloudy,40,2013-06-10 02:54:00
5:54 PM,75.9,68.0,76,30.06,10.0,NNE,18.4,27.6,N/A,,Partly Cloudy,30,2013-06-10 03:54:00
6:54 PM,73.9,69.1,85,30.07,10.0,NE,12.7,24.2,N/A,,Clear,50,2013-06-10 04:54:00
7:17 PM,73.4,68.0,83,30.07,10.0,NE,13.8,23.0,N/A,,Partly Cloudy,50,2013-06-10 05:17:00
7:54 PM,73.0,68.0,84,30.09,10.0,NE,9.2,23.0,N/A,,Clear,40,2013-06-10 05:54:00
8:54 PM,73.0,69.1,87,30.10,10.0,NE,13.8,21.9,N/A,,Clear,40,2013-06-10 06:54:00
9:46 PM,71.6,69.8,94,30.10,10.0,NNE,13.8,24.2,0.00,Rain,Light Rain,30,2013-06-10 07:46:00
9:54 PM,72.0,69.1,91,30.11,10.0,NE,12.7,21.9,0.00,Rain,Light Rain,40,2013-06-10 07:54:00
10:54 PM,72.0,68.0,87,30.12,10.0,NE,11.5,20.7,0.00,,Clear,50,2013-06-10 08:54:00
11:54 PM,72.0,68.0,87,30.10,10.0,NE,11.5,18.4,0.00,,Clear,40,2013-06-10 09:54:00